Hourly Data Report for September 02, 2017

All times are specified in Local Standard Time (LST). Add 1 hour to adjust for Daylight Saving Time where and when it is observed.

SAINT JOHN A
NEW BRUNSWICK

45°18'58.000" N
65°53'24.000" W
108.80 m
8104901
71609
YSJ

Download Data

Hourly Data (September 2017)
Hourly Data Report for September 2, 2017
Temp Definition
°C
Dew Point Temp Definition
°C
Rel Hum Definition
%
Wind Dir Definition
10's deg

Wind Spd Definition
km/h
Visibility Definition
km
Stn Press Definition
kPa
Hmdx Definition


Wind Chill Definition


Weather Definition


TIME
00:00 Legend Double Dagger 10.3 5.8 73 30 15 24.1 100.12     LegendNANA
01:00 Legend Double Dagger 10.0 5.6 74 31 18 24.1 100.12     LegendNANA
02:00 Legend Double Dagger 9.7 5.4 74 29 11 24.1 100.14     Mostly Cloudy
03:00 Legend Double Dagger 9.0 5.1 77 31 21 24.1 100.16     LegendNANA
04:00 Legend Double Dagger 8.4 5.2 81 33 16 24.1 100.21     LegendNANA
05:00 Legend Double Dagger 8.2 5.2 81 31 13 24.1 100.30     Mostly Cloudy
06:00 Legend Double Dagger 8.2 5.3 82 33 17 24.1 100.38     LegendNANA
07:00 Legend Double Dagger 9.2 5.2 76 32 19 24.1 100.43     LegendNANA
08:00 Legend Double Dagger 10.2 4.9 69 32 24 24.1 100.49     Mostly Cloudy
09:00 Legend Double Dagger 11.2 5.0 65 33 21 24.1 100.55     LegendNANA
10:00 Legend Double Dagger 11.9 5.2 63 33 17 24.1 100.58     LegendNANA
11:00 Legend Double Dagger 13.0 5.2 59 34 20 24.1 100.60     Cloudy
12:00 Legend Double Dagger 14.4 6.2 58 35 19 24.1 100.62     LegendNANA
13:00 Legend Double Dagger 16.5 6.5 51 31 19 24.1 100.61     LegendNANA
14:00 Legend Double Dagger 16.7 5.7 48 33 12 24.1 100.61     Mostly Cloudy
15:00 Legend Double Dagger 18.9 6.2 43 28 15 24.1 100.61     LegendNANA
16:00 Legend Double Dagger 17.2 8.1 55 22 18 24.1 100.64     LegendNANA
17:00 Legend Double Dagger 16.0 8.8 62 21 20 24.1 100.69     Mainly Clear
18:00 Legend Double Dagger 14.1 8.9 71 20 15 24.1 100.73     LegendNANA
19:00 Legend Double Dagger 11.3 8.9 85 19 4 24.1 100.82     LegendNANA
20:00 Legend Double Dagger 10.2 8.4 89 17 4 24.1 100.90     Mainly Clear
21:00 Legend Double Dagger 8.8 7.9 94 19 4 24.1 100.95     LegendNANA
22:00 Legend Double Dagger 7.2 6.6 96 36 2 24.1 100.99     LegendNANA
23:00 Legend Double Dagger 6.0 5.8 98 36 1 24.1 101.01     Clear

Notes on Data Quality.

Legend

  • E = Estimated
  • M = Missing
  • NA = Not Available
  • ‡ = Partner data that is not subject to review by the National Climate Archives
Date modified: